Theta_e
314 313 313 313 312 312 312 312 311 311 311 311 311 311 310 309 308 309 309 310 311 310 310 309 309 307 303 294 293 306 306 307 305 304 303 302 299 300 297 302 302 296 295 295 296 296 296
313 313 312 312 312 312 311 311 311 310 310 311 310 309 308 308 308 309 308 309 309 309 309 309 310 308 299 288 304 307 304 302 302 301 299 303 300 300 300 301 302 299 296 294 295 294 298
313 313 313 312 312 311 311 311 310 309 310 310 310 309 308 308 308 308 308 308 310 309 308 309 311 305 296 293 305 304 303 300 301 300 297 303 304 298 299 299 305 298 291 292 292 294 294
313 313 313 312 311 311 310 310 310 310 310 309 309 308 308 308 308 308 308 309 308 308 306 308 310 301 290 303 303 301 302 300 302 302 301 305 306 300 297 302 300 294 290 286 291 293 295
313 313 313 312 311 311 311 310 310 310 309 309 308 308 308 308 307 308 307 306 307 307 307 308 299 294 287 306 298 301 301 298 300 300 302 306 302 295 299 296 291 290 285 284 287 292 294
313 313 313 312 311 311 311 310 310 310 309 308 308 307 307 307 307 305 305 304 304 301 299 303 301 287 293 289 296 300 302 301 296 298 297 299 293 289 294 293 284 286 284 284 285 289 292
313 313 312 312 311 310 310 310 310 309 309 308 307 307 307 306 305 303 297 292 287 287 290 286 288 289 291 295 300 299 301 298 296 295 290 292 288 285 292 293 292 291 288 285 284 290 291
312 313 312 312 311 310 310 310 309 309 309 307 307 306 307 305 302 302 294 289 290 289 283 291 290 292 294 294 289 294 299 291 290 287 291 289 286 290 296 293 289 286 283 283 287 290 292
312 312 312 312 311 310 309 309 309 309 309 307 307 306 306 304 301 294 289 289 295 295 284 287 290 290 290 293 289 289 295 291 288 289 288 287 290 294 294 289 286 282 286 284 286 289 291
312 312 312 312 311 310 309 309 308 308 308 307 307 305 304 302 293 289 287 292 295 293 280 282 285 288 291 291 286 295 298 293 292 288 291 291 295 294 289 286 288 283 287 289 287 286 282
311 311 311 311 310 309 308 308 308 308 308 307 307 303 302 299 288 287 290 293 294 286 271 282 284 293 291 288 290 294 300 295 289 292 292 287 289 290 287 285 288 284 290 290 287 285 286
311 311 310 310 310 309 308 308 307 307 307 307 307 301 300 292 289 289 292 293 286 273 271 277 284 282 283 288 293 296 296 297 296 291 292 290 294 292 286 288 287 289 288 288 288 286 281
310 310 310 310 309 309 308 307 307 307 307 307 306 300 294 292 285 291 291 284 273 266 280 277 278 281 282 283 288 290 287 285 284 283 284 289 289 292 292 288 290 289 288 280 279 279 278
309 310 310 309 309 309 308 308 307 307 307 306 304 296 293 290 290 291 285 278 266 272 273 280 280 281 278 280 284 285 282 281 286 284 282 278 279 289 291 286 285 285 285 280 273 273 276
309 309 309 309 309 308 308 308 307 307 306 304 298 286 286 289 290 288 281 268 268 273 277 276 278 276 277 277 279 280 280 280 283 285 278 280 282 290 288 288 288 284 281 284 278 274 276
308 308 308 309 308 308 308 308 307 307 304 300 285 282 283 288 287 284 276 273 275 279 278 278 271 273 269 272 274 273 276 283 282 286 288 284 280 287 288 289 289 285 286 281 279 275 273
308 308 308 308 309 309 309 308 306 306 303 296 281 279 283 288 286 279 268 273 277 279 279 277 274 272 269 267 266 270 273 282 284 284 287 286 282 283 286 283 282 284 282 281 281 279 274
307 307 307 307 308 308 308 308 307 305 301 290 280 277 285 285 276 270 268 277 281 278 278 277 277 276 273 274 270 274 276 279 284 285 284 287 283 279 280 286 288 284 281 281 278 277 276
306 306 307 307 307 307 307 307 306 304 300 284 277 277 284 282 269 264 275 277 278 277 276 276 275 277 277 275 273 274 277 283 283 284 283 285 282 276 279 283 285 283 283 282 281 281 277
305 306 306 306 306 307 307 306 305 303 301 283 277 274 278 278 275 271 271 272 274 279 277 278 276 277 276 274 276 274 276 281 282 283 288 287 284 280 277 280 282 281 283 282 282 277 277
305 305 305 305 306 306 305 305 304 302 299 285 277 269 269 269 269 263 268 266 268 270 276 277 275 274 273 270 274 273 275 277 281 282 281 283 278 281 281 283 284 284 283 282 281 280 278
304 304 305 305 305 305 304 304 303 301 297 284 277 274 271 269 262 266 269 263 267 270 271 270 268 273 270 266 270 269 273 276 274 277 275 277 276 280 280 284 282 283 284 284 283 283 281
303 303 304 304 304 304 304 303 302 298 293 282 281 281 277 272 263 266 266 269 271 275 274 278 275 270 271 274 274 275 275 275 276 275 275 271 272 274 272 283 280 278 281 281 281 277 281
303 302 303 303 303 303 303 303 302 299 291 284 282 280 275 269 270 267 269 275 275 276 268 277 275 270 276 277 277 276 274 275 275 276 278 277 273 277 277 280 276 276 275 276 276 276 274
303 303 302 302 302 302 302 303 302 300 294 284 282 281 274 268 273 274 270 270 273 273 274 276 277 275 275 276 270 267 269 271 272 276 275 277 270 269 270 271 275 276 275 274 275 279 275
304 303 302 302 302 301 302 302 302 300 296 285 282 282 279 273 273 276 271 268 265 261 266 272 277 276 278 276 266 261 264 265 266 270 276 279 276 268 267 267 269 274 273 275 276 276 273
305 304 303 302 302 301 301 301 301 300 296 287 285 284 279 271 276 276 271 270 268 264 264 265 269 271 276 264 260 262 264 267 265 266 266 265 261 268 263 265 271 273 274 275 273 277 272
305 304 304 303 302 302 301 301 300 299 297 289 285 285 281 273 276 279 279 271 273 268 267 269 269 268 265 265 263 263 262 265 264 261 264 267 265 267 267 262 269 274 274 275 274 271 272
306 305 304 303 302 302 301 301 301 300 297 291 284 287 286 280 278 281 282 282 279 276 270 265 269 264 269 264 261 263 266 265 259 263 261 265 268 268 271 273 272 273 271 270 270 270 271
Wind_Speed
21 20 21 21 21 21 21 22 21 21 23 21 22 21 20 20 19 20 19 19 18 15 14 8 9 12 3 3 3 6 2 5 5 1 9 9 12 5 17 13 14 5 7 3 3 8 7
21 21 21 22 22 22 23 22 23 23 21 22 20 20 20 20 21 20 19 17 16 14 12 8 12 11 2 3 3 14 5 4 3 3 5 8 8 2 8 16 18 7 6 3 2 6 5
21 22 22 23 23 23 23 24 24 23 23 23 22 21 19 19 20 20 18 16 16 12 5 3 13 4 1 4 4 8 7 3 2 3 3 5 7 3 10 17 8 10 7 3 2 5 4
23 23 23 23 23 23 24 24 24 23 23 22 21 19 18 19 19 18 16 16 14 6 1 5 8 2 1 2 5 4 4 3 2 3 1 6 10 6 8 8 9 7 6 6 3 5 1
22 24 24 25 25 24 24 24 24 23 22 20 19 18 17 18 18 17 15 15 6 6 3 6 4 2 1 6 3 3 4 4 4 2 5 11 14 4 5 23 6 2 15 7 4 1 5
23 24 25 25 25 25 25 25 24 23 21 19 17 17 17 18 17 15 16 5 3 3 3 2 1 2 1 5 2 5 1 4 1 7 1 6 6 2 8 18 14 13 15 5 8 6 4
24 25 25 26 26 26 26 26 25 23 20 18 17 17 17 16 10 15 6 4 6 5 9 3 3 4 3 8 3 4 2 4 1 2 5 6 5 8 23 27 17 19 18 12 3 1 7
24 25 26 27 27 27 26 26 25 22 19 16 16 17 18 14 5 16 4 6 3 2 1 4 6 0 7 7 1 3 2 4 6 6 12 7 5 8 14 17 15 9 8 4 3 4 8
24 26 26 27 28 28 28 27 25 22 19 15 15 18 18 12 6 7 5 5 6 1 2 7 6 4 6 7 4 3 5 4 4 11 9 10 1 2 9 15 14 4 17 6 9 4 7
25 26 27 27 28 27 28 28 26 22 19 15 14 18 16 7 6 1 4 8 4 2 2 13 8 1 5 4 5 5 6 3 6 14 13 6 3 7 10 12 18 10 8 7 9 6 5
25 26 27 27 27 27 28 28 27 24 19 14 12 17 11 13 1 4 5 7 2 4 5 21 9 8 15 5 4 3 6 6 7 11 6 1 6 14 11 3 8 7 7 8 5 7 6
25 26 27 28 28 28 28 28 27 25 20 14 9 13 11 6 4 1 5 4 4 8 8 12 8 14 14 11 1 5 7 5 2 17 16 7 5 4 3 5 4 9 10 9 6 4 2
24 26 27 28 29 29 29 29 27 25 21 14 6 11 6 2 4 6 2 4 8 10 9 14 9 14 10 12 11 11 11 14 7 11 9 9 6 5 4 9 7 6 15 4 5 3 4
24 25 27 28 29 29 30 30 30 27 22 13 0 4 3 6 4 1 3 8 15 4 5 8 6 11 9 13 10 17 8 9 14 10 8 5 4 6 6 5 8 3 6 7 8 6 6
24 26 27 28 30 31 30 32 32 28 22 12 3 3 4 10 6 3 8 11 3 4 6 10 11 7 9 8 6 6 9 10 10 11 5 5 4 4 3 1 3 5 3 6 9 2 4
24 26 28 28 31 32 31 32 33 29 23 9 3 3 5 13 7 7 11 7 2 3 6 3 5 4 8 13 9 8 8 6 9 6 5 5 6 5 5 2 5 4 7 7 3 6 5
22 24 26 29 29 30 31 31 33 33 26 3 5 5 4 11 6 10 7 5 3 4 5 5 3 4 2 4 4 6 6 5 10 10 9 5 4 5 1 4 2 2 3 6 7 5 7
20 22 25 27 28 30 31 32 32 32 28 9 4 7 6 6 9 4 4 3 8 7 5 5 3 3 3 5 6 4 5 3 10 6 5 6 1 3 2 3 1 2 3 5 6 5 0
18 20 23 25 26 29 31 32 32 32 22 3 4 2 4 5 7 4 2 3 3 9 6 8 6 5 3 4 5 2 1 1 6 5 2 6 3 4 8 7 4 2 2 3 4 4 6
17 18 20 23 25 27 29 32 33 33 20 6 5 5 6 8 3 5 2 4 5 5 3 4 5 4 4 6 5 3 4 3 5 7 6 1 0 1 8 2 2 4 3 3 5 3 4
15 17 19 21 23 25 28 29 33 33 20 6 6 1 4 5 6 4 3 0 3 6 5 6 4 8 3 5 4 4 3 5 2 11 5 3 2 1 1 1 2 1 3 5 6 4 5
13 14 16 18 20 23 26 28 30 34 15 8 5 4 3 2 2 3 5 2 1 3 2 6 5 4 4 5 3 3 3 5 3 7 6 5 1 1 2 5 3 4 6 6 5 5 3
10 11 12 14 16 19 21 23 26 28 12 5 2 2 5 4 3 4 3 3 3 2 3 2 2 2 3 2 2 4 3 3 2 2 4 3 2 3 5 2 5 6 7 6 3 2 7
10 9 9 10 11 14 16 18 21 20 11 4 1 1 5 2 3 2 2 2 2 1 4 2 4 3 2 5 3 1 2 3 3 4 4 1 1 2 2 2 6 1 2 2 4 5 3
12 10 8 7 7 9 11 13 16 17 13 5 0 3 3 1 3 2 2 3 4 5 2 2 2 3 2 2 4 5 5 6 3 0 3 3 2 2 4 3 5 2 2 2 4 6 8
15 12 10 8 6 5 6 9 11 13 10 4 2 0 4 6 5 5 4 4 3 1 5 4 1 1 0 2 4 4 4 4 4 4 4 2 4 4 3 3 6 5 3 2 2 7 2
17 15 13 11 9 6 4 4 5 8 7 4 2 1 3 4 3 5 4 5 6 3 3 4 5 3 2 3 3 3 4 3 3 5 5 1 3 4 3 3 10 6 6 2 7 8 5
19 18 16 14 12 9 7 4 3 2 4 2 1 1 1 3 3 5 5 6 4 2 4 4 4 3 4 4 4 3 3 4 0 4 6 7 7 5 3 2 10 8 5 7 1 2 4
21 20 18 17 15 12 10 8 5 3 4 4 1 1 1 1 4 1 3 3 5 7 7 1 4 4 4 5 1 3 3 2 2 4 2 4 7 6 9 8 2 6 2 1 5 5 4
Wind_Direction
4 360 357 352 348 345 346 339 341 337 331 332 323 321 321 325 317 317 321 320 316 313 318 333 155 83 312 77 130 143 279 23 12 234 205 187 198 254 176 178 160 149 148 195 301 165 150
2 360 356 352 350 347 344 345 341 339 333 331 323 323 332 325 314 319 321 319 316 321 317 341 166 139 263 68 88 167 145 81 284 181 181 225 212 131 242 167 170 130 119 174 223 168 139
-0 360 357 354 349 346 345 344 344 342 339 339 337 337 334 319 321 321 325 326 320 311 310 33 159 151 99 22 113 120 135 129 258 197 162 226 116 289 336 155 146 134 107 129 161 166 141
360 358 357 353 349 347 346 347 345 343 342 343 341 341 330 327 327 327 325 323 318 316 118 102 152 88 19 42 116 129 139 124 278 270 141 192 153 226 263 135 151 124 89 131 235 142 215
1 358 357 355 351 349 346 346 347 344 344 344 342 338 336 334 329 328 328 327 321 3 166 130 104 139 342 140 224 187 168 133 145 208 267 140 140 204 293 155 142 253 161 157 127 16 138
1 359 357 356 353 350 347 347 348 346 347 345 340 330 343 336 335 342 331 337 357 46 29 107 84 61 347 355 291 118 269 100 129 151 195 119 66 66 241 162 166 177 157 143 145 190 59
1 359 358 357 355 351 349 349 350 349 352 347 339 334 345 338 359 345 359 34 25 2 40 75 335 263 20 320 138 109 106 139 23 236 137 141 117 204 166 174 149 163 164 147 42 77 86
2 360 358 358 356 352 350 352 352 351 356 351 336 334 349 344 24 9 41 70 106 161 351 17 16 333 33 330 229 117 165 164 169 156 127 116 192 216 207 159 134 121 116 107 59 61 91
2 359 358 358 358 354 350 352 353 352 355 354 343 338 347 349 19 37 55 63 321 251 77 42 29 311 321 318 340 187 196 185 174 143 157 121 72 180 194 145 138 112 163 158 136 110 54
1 358 357 358 358 356 352 353 352 352 353 355 351 351 358 1 44 327 52 323 359 33 44 357 354 54 308 294 270 188 171 199 205 136 104 66 94 231 143 147 149 146 157 107 116 95 146
0 358 358 357 357 356 356 355 351 351 351 353 1 2 27 42 144 49 312 321 300 65 31 333 321 290 301 227 318 109 183 195 140 132 97 135 170 146 122 147 134 161 147 127 106 94 100
1 359 357 357 357 358 357 356 354 350 349 353 16 26 8 29 27 63 322 333 21 41 8 340 318 339 357 358 50 153 153 225 228 81 79 77 173 54 78 38 87 147 92 51 57 70 89
2 360 357 357 357 359 358 357 358 353 346 343 1 68 59 43 298 316 22 33 36 71 326 336 337 339 349 5 21 28 61 49 69 105 79 44 15 349 61 72 3 106 134 90 39 49 196
2 -0 358 357 358 360 360 358 359 358 350 346 321 91 54 67 300 154 53 56 59 274 316 326 326 324 31 360 39 21 40 44 15 31 82 109 85 2 343 133 162 115 132 128 152 165 219
2 359 358 357 358 359 1 0 359 359 357 350 47 352 33 351 353 69 66 54 135 300 299 320 314 17 350 9 21 59 40 26 14 4 85 107 52 310 57 132 122 195 94 153 106 67 82
2 359 357 356 357 357 1 5 359 358 1 6 70 36 30 339 346 54 62 103 106 353 320 328 59 34 9 338 44 35 20 355 342 8 334 359 84 347 314 50 32 141 149 96 37 137 179
1 358 358 356 356 356 357 4 5 356 358 72 58 50 295 345 44 53 77 68 344 345 1 36 11 20 358 350 59 32 3 36 356 335 323 4 65 288 0 40 173 85 127 64 110 130 163
360 359 360 358 355 358 357 0 5 5 354 44 70 46 331 353 56 46 51 1 355 337 0 31 100 86 47 2 27 62 79 26 351 315 13 17 101 54 330 277 297 70 156 128 135 210 226
358 0 1 359 358 360 358 359 3 7 19 26 71 328 339 41 77 3 35 37 55 11 8 12 27 19 11 44 101 49 358 358 9 51 34 351 354 75 355 347 7 222 185 112 106 90 193
355 360 1 0 1 3 359 359 1 5 18 83 71 25 354 40 42 104 87 11 6 16 71 1 11 15 8 35 14 102 353 325 344 3 10 316 118 206 207 262 146 184 174 155 119 132 161
350 356 360 1 2 4 5 3 359 3 14 84 32 292 190 340 6 59 64 94 16 5 359 15 49 37 351 28 18 24 336 330 45 360 4 38 193 323 290 6 248 178 178 180 176 174 167
342 352 355 359 2 6 6 7 8 0 17 73 99 113 7 92 10 53 355 309 104 296 74 338 82 326 39 98 190 257 20 32 35 331 18 339 183 348 290 331 329 217 201 208 227 213 223
322 337 345 356 0 6 8 11 14 11 21 85 335 100 110 315 13 65 266 203 225 156 297 179 195 72 35 339 270 248 244 292 268 344 333 50 94 54 257 310 309 301 229 191 181 253 158
295 309 327 343 354 2 7 13 18 24 44 99 136 98 82 283 84 184 198 213 261 281 175 236 143 124 249 314 287 279 257 235 257 265 218 9 72 116 267 328 217 182 71 26 297 268 215
270 279 294 314 332 349 2 12 18 26 37 80 56 86 104 130 162 191 178 228 326 318 267 262 166 182 301 317 36 18 340 14 321 156 213 245 91 81 157 226 295 328 86 138 191 271 186
259 262 267 274 288 314 342 5 21 25 41 81 49 116 101 115 252 159 141 165 185 248 333 266 64 334 172 70 68 149 215 208 284 330 32 156 66 112 50 143 211 237 230 184 199 285 80
254 253 255 257 259 267 293 334 17 29 46 101 60 8 91 100 234 139 178 170 135 114 191 296 310 27 20 88 93 166 249 168 230 194 187 68 15 169 194 206 280 207 201 188 114 231 155
250 250 248 249 251 246 252 261 294 49 71 102 107 5 107 140 251 196 175 139 138 125 149 221 38 326 38 86 137 215 174 230 356 217 192 171 147 199 132 96 271 141 83 193 292 112 161
243 244 242 240 242 239 234 238 240 189 133 130 131 329 95 167 205 188 229 222 188 190 132 220 186 184 195 92 174 118 181 189 183 268 315 276 190 184 186 215 285 221 149 353 100 130 171